Weather reports worldwide

Advertisment
Aviano, Italy (16036): temperature & dewpoint: 18.06.2018 11:00:00 - 24.06.2018 11:00:00 (CEST)Aviano, Italy (16036): wind speed: 18.06.2018 11:00:00 - 24.06.2018 11:00:00 (CEST)Aviano, Italy (16036): wind direction: 18.06.2018 11:00:00 - 24.06.2018 11:00:00 (CEST)Aviano, Italy (16036): reduced air pressure: 18.06.2018 11:00:00 - 24.06.2018 11:00:00 (CEST)Aviano, Italy (16036): visibility: 18.06.2018 11:00:00 - 24.06.2018 11:00:00 (CEST)
Date & Time tt [°C] td [°C] ff [km/h] ff [kn] dd ppp [hPa] vv [km]
24.06.2018 11:00:00 - - - - - - -
24.06.2018 10:00:00 - - - - - - -
24.06.2018 09:00:00 - - - - - - -
24.06.2018 08:00:00 - - - - - - -
24.06.2018 07:00:00 - - - - - - -
24.06.2018 06:00:00 - - - - - - -
24.06.2018 05:00:00 - - - - - - -
24.06.2018 04:00:00 - - - - - - -
24.06.2018 03:00:00 - - - - - - -
24.06.2018 02:00:00 - - - - - - -
24.06.2018 01:00:00 - - - - - - -
24.06.2018 00:00:00 - - - - - - -
23.06.2018 23:00:00 - - - - - - -
23.06.2018 22:00:00 20,0 13,0 4 2 NW - 10
23.06.2018 21:00:00 21,0 12,0 8 4 NNW - 10
23.06.2018 20:00:00 21,8 11,8 13 7 SSW 1017,8 25
23.06.2018 19:00:00 22,0 13,0 11 6 S - 10
23.06.2018 18:00:00 22,0 12,0 13 7 WSW - 10
23.06.2018 17:00:00 22,0 11,7 16 9 SW 1018,3 25
23.06.2018 16:00:00 23,0 12,0 13 7 SSW - 10
23.06.2018 15:00:00 22,0 11,0 13 7 S - 10
23.06.2018 14:00:00 21,8 11,2 11 6 SSW 1019,6 25
23.06.2018 13:00:00 22,0 12,0 13 7 SSW - 10
23.06.2018 12:00:00 21,0 11,0 11 6 SSW - 10
23.06.2018 11:00:00 20,2 10,9 11 6 S 1021,0 25
23.06.2018 10:00:00 18,0 11,0 8 4 SSW - 10
23.06.2018 09:00:00 18,0 10,0 5 3 SW - 10
23.06.2018 08:00:00 17,6 11,2 5 3 WSW 1021,1 25
23.06.2018 07:00:00 14,0 14,0 2 1 WNW - 10
23.06.2018 06:00:00 14,0 13,0 5 3 N - 10
23.06.2018 05:00:00 - - - - - - -
23.06.2018 04:00:00 - - - - - - -
23.06.2018 03:00:00 - - - - - - -
23.06.2018 02:00:00 - - - - - - -
23.06.2018 01:00:00 - - - - - - -
23.06.2018 00:00:00 - - - - - - -
22.06.2018 23:00:00 - - - - - - -
22.06.2018 22:00:00 19,0 15,0 9 5 ESE - 10
22.06.2018 21:00:00 19,0 16,0 8 4 NE - 10
22.06.2018 20:00:00 19,8 15,9 11 6 E 1017,3 20
22.06.2018 19:00:00 21,0 18,0 8 4 NW - 10
22.06.2018 18:00:00 20,0 17,0 8 4 NW - 10
22.06.2018 17:00:00 20,4 14,7 8 4 SSW 1015,1 20
22.06.2018 16:00:00 21,0 15,0 5 3 SSW - 10
22.06.2018 15:00:00 22,0 16,0 8 4 SE - 10
22.06.2018 14:00:00 21,2 15,5 9 5 SSE 1014,8 18
22.06.2018 13:00:00 21,0 17,0 11 6 ESE - 10
22.06.2018 12:00:00 21,0 17,0 16 9 E - 10
22.06.2018 11:00:00 21,4 17,8 15 8 E 1013,5 15
22.06.2018 10:00:00 21,0 19,0 4 2 NNE - 10
22.06.2018 09:00:00 20,0 18,0 4 2 NE - 10
22.06.2018 08:00:00 19,0 18,2 16 9 NNE 1012,5 11
22.06.2018 07:00:00 20,0 19,0 13 7 E - 6
22.06.2018 06:00:00 21,0 20,0 9 5 ENE - 4,0
22.06.2018 05:00:00 - - - - - - -
22.06.2018 04:00:00 - - - - - - -
22.06.2018 03:00:00 - - - - - - -
22.06.2018 02:00:00 - - - - - - -
22.06.2018 01:00:00 - - - - - - -
22.06.2018 00:00:00 - - - - - - -
21.06.2018 23:00:00 - - - - - - -
21.06.2018 22:00:00 26,0 21,0 5 3 SSE - 10
21.06.2018 21:00:00 27,0 22,0 5 3 SSE - 10
21.06.2018 20:00:00 28,0 21,5 11 6 S 1010,7 25
21.06.2018 19:00:00 29,0 22,0 11 6 SSW - 10
21.06.2018 18:00:00 30,0 22,0 15 8 S - 10
21.06.2018 17:00:00 30,0 21,4 15 8 SW 1011,7 25
21.06.2018 16:00:00 31,0 21,0 15 8 SSW - 10
21.06.2018 15:00:00 30,0 21,0 15 8 SSW - 10
21.06.2018 14:00:00 29,8 22,5 15 8 SSW 1013,5 25
21.06.2018 13:00:00 29,0 22,0 9 5 SW - 10
21.06.2018 12:00:00 29,0 22,0 8 4 SSW - 10
21.06.2018 11:00:00 28,4 21,4 5 3 ENE 1015,3 25
21.06.2018 10:00:00 27,0 22,0 4 2 E - 10
21.06.2018 09:00:00 26,0 22,0 5 3 ENE - 10
21.06.2018 08:00:00 24,0 20,3 5 3 N 1016,2 25
21.06.2018 07:00:00 22,0 19,0 8 4 NE - 10
21.06.2018 06:00:00 20,0 19,0 8 4 NE - 10
21.06.2018 05:00:00 - - - - - - -
21.06.2018 04:00:00 - - - - - - -
21.06.2018 03:00:00 - - - - - - -
21.06.2018 02:00:00 - - - - - - -
21.06.2018 01:00:00 - - - - - - -
21.06.2018 00:00:00 - - - - - - -
20.06.2018 23:00:00 24,0 20,0 8 4 NNE - 10
20.06.2018 22:00:00 26,0 20,0 5 3 NNW - 10
20.06.2018 21:00:00 27,0 19,0 8 4 WNW - 10
20.06.2018 20:00:00 29,0 19,4 9 5 W 1017,0 25
20.06.2018 19:00:00 30,0 18,0 11 6 W - 10
20.06.2018 18:00:00 31,0 18,0 8 4 WSW - 10
20.06.2018 17:00:00 30,6 17,7 5 3 N 1017,9 25
20.06.2018 16:00:00 31,0 18,0 5 3 E - 10
20.06.2018 15:00:00 30,0 18,0 8 4 ESE - 10
20.06.2018 14:00:00 29,4 18,5 8 4 NW 1019,4 25
20.06.2018 13:00:00 30,0 20,0 4 2 NNE - 10
20.06.2018 12:00:00 29,0 19,0 9 5 S - 10
20.06.2018 11:00:00 28,0 18,7 5 3 S 1020,8 25
20.06.2018 10:00:00 27,0 19,0 2 1 NNE - 10
20.06.2018 09:00:00 25,0 18,0 5 3 NE - 10
20.06.2018 08:00:00 23,6 19,1 8 4 NNE 1021,2 25
20.06.2018 07:00:00 21,0 16,0 9 5 NNE - 10
20.06.2018 06:00:00 21,0 17,0 9 5 NNE - 10
20.06.2018 05:00:00 - - - - - - -
20.06.2018 04:00:00 - - - - - - -
20.06.2018 03:00:00 - - - - - - -
20.06.2018 02:00:00 - - - - - - -
20.06.2018 01:00:00 - - - - - - -
20.06.2018 00:00:00 22,0 18,0 9 5 NE - 10
19.06.2018 23:00:00 23,0 18,0 11 6 NNE - 10
19.06.2018 22:00:00 24,0 18,0 9 5 NNE - 10
19.06.2018 21:00:00 26,0 19,0 5 3 NE - 10
19.06.2018 20:00:00 27,0 17,2 9 5 WSW 1017,6 25
19.06.2018 19:00:00 29,0 18,0 11 6 WSW - 10
19.06.2018 18:00:00 30,0 18,0 9 5 SSW - 10
19.06.2018 17:00:00 30,4 17,5 8 4 SSW 1017,6 25
19.06.2018 16:00:00 30,0 17,0 11 6 W - 10
19.06.2018 15:00:00 30,0 17,0 11 6 SW - 10
19.06.2018 14:00:00 29,4 16,6 11 6 S 1018,9 25
19.06.2018 13:00:00 29,0 17,0 11 6 SSW - 10
19.06.2018 12:00:00 28,0 18,0 13 7 SW - 10
19.06.2018 11:00:00 27,4 17,6 13 7 SSW 1019,4 25
19.06.2018 10:00:00 26,0 18,0 8 4 SW - 10
19.06.2018 09:00:00 25,0 18,0 2 1 WNW - 10
19.06.2018 08:00:00 22,0 18,4 5 3 N 1019,8 25
19.06.2018 07:00:00 21,0 19,0 4 2 NE - 10
19.06.2018 06:00:00 20,0 18,0 4 2 S - 10
19.06.2018 05:00:00 - - - - - - -
19.06.2018 04:00:00 - - - - - - -
19.06.2018 03:00:00 - - - - - - -
19.06.2018 02:00:00 - - - - - - -
19.06.2018 01:00:00 - - - - - - -
19.06.2018 00:00:00 20,0 17,0 8 4 NNE - 10
18.06.2018 23:00:00 24,0 19,0 8 4 NNE - 10
18.06.2018 22:00:00 24,0 20,0 8 4 E - 10
18.06.2018 21:00:00 26,0 20,0 8 4 NNE - 10
18.06.2018 20:00:00 27,0 20,3 8 4 N 1014,7 25
18.06.2018 19:00:00 26,0 18,0 5 3 NW - 10
18.06.2018 18:00:00 27,0 19,0 8 4 WNW - 10
18.06.2018 17:00:00 27,0 17,8 13 7 W 1014,7 25
18.06.2018 16:00:00 29,0 16,0 13 7 WNW - 10
18.06.2018 15:00:00 29,0 17,0 13 7 W - 10
18.06.2018 14:00:00 29,0 16,9 9 5 SSW 1015,2 25
18.06.2018 13:00:00 28,0 18,0 11 6 WSW - 10
18.06.2018 12:00:00 - - - - - - -
18.06.2018 11:00:00 25,0 19,2 8 4 W 1016,0 25

tt = temperature
td = dewpoint
ff = wind speed
dd = wind direction
ppp = reduced air pressure
vv = visibility

Next stations